Regional Weather Roundup
Issued by NWS State College, PA

Home | Current Version | Previous Version | Text Only | Print | Product List | Glossary On
Versions: 1 2 3 4 5 6 7 8 9 10 11 12 13 14 15 16 17 18 19 20 21 22 23 24 25 26 27 28 29 30 31 32 33 34 35 36 37 38 39 40 41 42 43 44 45 46 47 48 49 50
000
ASUS41 KCTP 230403
RWRCTP

REGIONAL WEATHER ROUNDUP
NATIONAL WEATHER SERVICE STATE COLLEGE PA
1200 AM EDT SAT JUN 23 2018

Note: "fair" indicates few or no clouds below 12,000 feet with no
significant weather and/or obstructions to visibility.

* = STATION THAT DOES NOT REPORT PRECIPITATION /E.G. RAIN...SNOW...ETC/
    THUNDER OR FOG.

PAZ002>004-007>009-013>016-020>023-029>032-230500-
WESTERN PENNSYLVANIA

CITY           SKY/WX    TMP DP  RH WIND       PRES   REMARKS
ERIE           CLOUDY    67  59  75 SE16G32   29.77S
MEADVILLE      CLOUDY    64  60  87 VRB7      29.81F
FRANKLIN*      CLOUDY    63  59  87 SE17G25   29.84
NEW CASTLE     CLOUDY    67  62  84 SE8G17    29.80S
BEAVER COUNTY  NOT AVBL
BUTLER*        MOCLDY    65  60  84 E8        29.82F
PITTSBURGH INT MOCLDY    66  61  84 E8        29.79F
PITTSBURGH     FAIR      64  61  90 E8        29.80F
INDIANA*       CLOUDY    64  61  88 SE9G17    29.90R
LATROBE        FAIR      66  63  88 VRB6      29.82S
WASHINGTON CO* FAIR      64  61  90 E3        29.82F
$$

PAZ004>006-010>012-017>019-024>028-033>037-041-042-045-046-049>053-230500-
CENTRAL PENNSYLVANIA

CITY           SKY/WX    TMP DP  RH WIND       PRES   REMARKS
BRADFORD       CLOUDY    60  57  89 SE18G25   29.89F
DUBOIS         CLOUDY    60  58  92 SE14G21   29.87F
CLEARFIELD     CLOUDY    61  58  90 E5        29.91F
JOHNSTOWN      CLOUDY    59  57  93 VRB7G22   29.89F
ALTOONA        CLOUDY    63  59  87 SE7       29.91F
STATE COLLEGE  CLOUDY    63  57  82 MISG      29.92F
WILLIAMSPORT   CLOUDY    67  56  67 E15G22    29.90F
SELINSGROVE    CLOUDY    66  57  72 SE14      29.93F
FT INDIANTOWN  CLOUDY    65  57  75 E8        29.93F
CAPITAL CITY   LGT RAIN  67  58  72 E8        29.91F
HARRISBURG     CLOUDY    66  58  75 E7        29.90F
YORK           CLOUDY    63  61  93 E8        29.91F
$$

PAZ038>040-043-044-047-048-054-055-060>062-067>071-230500-
EASTERN PENNSYLVANIA

CITY           SKY/WX    TMP DP  RH WIND       PRES   REMARKS
SCRANTON       CLOUDY    65  57  75 SE3       29.97S
MOUNT POCONO   NOT AVBL
ALLENTOWN      NOT AVBL
QUAKERTOWN*    CLOUDY    63  64 100 NE6       29.95F
READING        CLOUDY    66  62  87 E6        29.93F
LANCASTER      CLOUDY    66  61  84 E10       29.92F
COATESVILLE    CLOUDY    63  61  94 E13G18    29.94F
POTTSTOWN      NOT AVBL
BLUE BELL      CLOUDY    63  63 100 E8        29.95F
DOYLESTOWN     CLOUDY    64  62  93 NE3       29.94F
WILLOW GROVE   NOT AVBL
NORTH PHILA    CLOUDY    67  63  87 E14       29.94F
PHILADELPHIA   CLOUDY    65  63  93 E12       29.93F
$$




USA.gov is the U.S. government's official web portal to all federal, state and local government web resources and services.